Weather in Yiwu

China     22°00′13″N   101°27′44″E
temp.,
°C
wind,
m/s
gust,
m/s
humid.,
%
clouds,
%
prec.,
mm/h
press.,
hPa
HPBL,
m
9 march, tue
tue923:00+16sse01320 0.0 101423
02:00+15ne01350 0.0 101423
05:00+13n00410 0.0 101523
08:00+13e11430 0.0 101723
11:00+25sw11220 0.0 1017560
14:00+29wsw36190 0.0 10122633
17:00+29wsw27180 0.0 10093620
20:00+21se123320 0.0 101128
10 march, wed
wed1023:00+18s013750 0.0 101523
02:00+16ne004225 0.0 101423
05:00+14ne00470 0.0 101423
08:00+14ene11520 0.0 101623
11:00+26sw12261 0.0 1017781
14:00+29wsw36200 0.0 10122943
17:00+30wsw37180 0.0 10093587
20:00+21se113418 0.0 101123
11 march, thu
thu1123:00+19e013689 0.0 101423
02:00+17nne014145 0.0 101523
05:00+14ene11470 0.0 101523
08:00+14e11510 0.0 101723
11:00+28s122539 0.0 1017707
14:00+30w352121 0.0 10133355
17:00+29wsw252128 0.0 10103399
20:00+21sse013921 0.0 101223
12 march, fri
fri1223:00+18e11451 0.0 101523
02:00+16e11530 0.0 101523
05:00+15ene11610 0.0 101523
08:00+14ene11680 0.0 101824
11:00+28ssw11311 0.0 1017844
14:00+30wsw35190 0.0 10133012
17:00+30wsw25180 0.0 10103377
20:00+21se11390 0.0 101223
13 march, sat
sat1323:00+20ese114528 0.0 101423
02:00+17e115514 0.0 101523
05:00+15ene11630 0.0 101523
08:00+15e11650 0.0 101723
11:00+28ssw12310 0.0 1016753
14:00+31w34190 0.0 10123037
17:00+31wsw25180 0.0 10083329
20:00+22se123810 0.0 100923